Time,TemperatureF,DewpointF,PressureIn,WindDirection,WindDirectionDegrees,WindSpeedMPH,WindSpeedGustMPH,Humidity,HourlyPrecipIn,Conditions,Clouds,dailyrainin,SolarRadiationWatts/m^2,SoftwareType,DateUTC
2013-02-14 00:00:00,38.6,22.5,31.15,WNW,285,2.0,4.0,52,0.00,,,0.04,0.00,VWS V14.00,2013-02-14 07:00:00,
2013-02-14 00:05:00,38.6,22.5,31.16,West,271,3.0,5.0,52,0.00,,,0.00,0.00,VWS V14.00,2013-02-14 07:05:00,
2013-02-14 00:10:00,38.6,22.5,31.16,West,261,3.0,5.0,52,0.00,,,0.00,0.00,VWS V14.00,2013-02-14 07:10:00,
2013-02-14 00:15:00,38.6,23.4,31.16,West,263,1.0,5.0,54,0.00,,,0.00,0.00,VWS V14.00,2013-02-14 07:15:00,
2013-02-14 00:20:00,38.4,23.7,31.17,West,263,4.0,4.0,55,0.00,,,0.00,0.00,VWS V14.00,2013-02-14 07:20:00,
2013-02-14 00:25:00,38.2,22.1,31.16,West,265,4.0,7.0,52,0.00,,,0.00,0.00,VWS V14.00,2013-02-14 07:25:00,
2013-02-14 00:30:00,38.2,22.1,31.16,WSW,249,2.0,9.0,52,0.00,,,0.00,0.00,VWS V14.00,2013-02-14 07:30:00,
2013-02-14 00:35:00,38.3,22.7,31.16,WSW,240,9.0,9.0,53,0.00,,,0.00,0.00,VWS V14.00,2013-02-14 07:35:00,
2013-02-14 00:40:00,38.4,22.3,31.16,West,274,6.0,12.0,52,0.00,,,0.00,0.00,VWS V14.00,2013-02-14 07:40:00,
2013-02-14 00:45:00,38.5,22.9,31.16,West,271,4.0,12.0,53,0.00,,,0.00,0.00,VWS V14.00,2013-02-14 07:45:00,
2013-02-14 00:50:00,38.4,23.2,31.16,West,274,2.0,7.0,54,0.00,,,0.00,0.00,VWS V14.00,2013-02-14 07:50:00,
2013-02-14 00:55:00,38.2,23.5,31.16,West,274,2.0,7.0,55,0.00,,,0.00,0.00,VWS V14.00,2013-02-14 07:55:00,
2013-02-14 01:00:00,37.9,23.6,31.16,West,273,4.0,7.0,56,0.00,,,0.00,0.00,VWS V14.00,2013-02-14 08:00:00,
2013-02-14 01:05:00,37.7,24.3,31.15,West,277,1.0,3.0,58,0.00,,,0.00,0.00,VWS V14.00,2013-02-14 08:05:00,
2013-02-14 01:10:00,37.4,23.6,31.15,West,281,0.0,4.0,57,0.00,,,0.00,0.00,VWS V14.00,2013-02-14 08:10:00,
2013-02-14 01:15:00,37.3,23.5,31.16,West,281,2.0,4.0,57,0.00,,,0.00,0.00,VWS V14.00,2013-02-14 08:15:00,
2013-02-14 01:20:00,37.1,23.7,31.16,West,281,1.0,2.0,58,0.00,,,0.00,0.00,VWS V14.00,2013-02-14 08:20:00,
2013-02-14 01:25:00,37.0,24.0,31.16,West,281,3.0,3.0,59,0.00,,,0.00,0.00,VWS V14.00,2013-02-14 08:25:00,
2013-02-14 01:30:00,36.8,23.8,31.17,West,281,0.0,3.0,59,0.00,,,0.00,0.00,VWS V14.00,2013-02-14 08:30:00,
2013-02-14 01:35:00,36.6,24.4,31.17,West,281,0.0,3.0,61,0.00,,,0.00,0.00,VWS V14.00,2013-02-14 08:35:00,
2013-02-14 01:40:00,36.4,24.2,31.19,North,360,0.0,6.0,61,0.00,,,0.00,0.00,VWS V14.00,2013-02-14 08:40:00,
2013-02-14 01:45:00,36.3,24.1,31.19,North,360,0.0,6.0,61,0.00,,,0.00,0.00,VWS V14.00,2013-02-14 08:45:00,
2013-02-14 01:50:00,36.2,24.1,31.19,North,360,0.0,0.0,61,0.00,,,0.00,0.00,VWS V14.00,2013-02-14 08:50:00,
2013-02-14 01:55:00,36.0,24.3,31.19,North,360,0.0,0.0,62,0.00,,,0.00,0.00,VWS V14.00,2013-02-14 08:55:00,
2013-02-14 02:00:00,35.9,24.2,31.19,North,360,0.0,0.0,62,0.00,,,0.00,0.00,VWS V14.00,2013-02-14 09:00:00,
2013-02-14 02:05:00,35.7,24.4,31.20,North,360,0.0,1.0,63,0.00,,,0.00,0.00,VWS V14.00,2013-02-14 09:05:00,
2013-02-14 02:10:00,35.4,24.1,31.21,North,360,1.0,2.0,63,0.00,,,0.00,0.00,VWS V14.00,2013-02-14 09:10:00,
2013-02-14 02:15:00,35.3,24.4,31.21,North,360,0.0,2.0,64,0.00,,,0.00,0.00,VWS V14.00,2013-02-14 09:15:00,
2013-02-14 02:20:00,35.2,24.6,31.22,North,360,2.0,3.0,65,0.00,,,0.00,0.00,VWS V14.00,2013-02-14 09:20:00,
2013-02-14 02:25:00,35.1,24.9,31.22,North,360,0.0,3.0,66,0.00,,,0.00,0.00,VWS V14.00,2013-02-14 09:25:00,
2013-02-14 02:30:00,35.0,24.4,31.22,North,360,0.0,3.0,65,0.00,,,0.00,0.00,VWS V14.00,2013-02-14 09:30:00,
2013-02-14 02:35:00,34.9,25.1,31.23,North,360,1.0,2.0,67,0.00,,,0.00,0.00,VWS V14.00,2013-02-14 09:35:00,
2013-02-14 02:40:00,34.8,25.7,31.23,North,360,3.0,3.0,69,0.00,,,0.00,0.00,VWS V14.00,2013-02-14 09:40:00,
2013-02-14 02:45:00,34.8,25.0,31.23,North,360,0.0,4.0,67,0.00,,,0.00,0.00,VWS V14.00,2013-02-14 09:45:00,
2013-02-14 02:50:00,34.8,24.6,31.23,North,360,0.0,0.0,66,0.00,,,0.00,0.00,VWS V14.00,2013-02-14 09:50:00,
2013-02-14 02:55:00,34.8,25.0,31.23,North,360,3.0,5.0,67,0.00,,,0.00,0.00,VWS V14.00,2013-02-14 09:55:00,
2013-02-14 03:00:00,34.8,25.7,31.23,WNW,294,0.0,5.0,69,0.00,,,0.00,0.00,VWS V14.00,2013-02-14 10:00:00,
2013-02-14 03:05:00,34.8,24.6,31.22,WNW,294,0.0,0.0,66,0.00,,,0.00,0.00,VWS V14.00,2013-02-14 10:05:00,
2013-02-14 03:10:00,34.8,25.0,31.22,WNW,294,0.0,3.0,67,0.00,,,0.00,0.00,VWS V14.00,2013-02-14 10:10:00,
2013-02-14 03:15:00,34.9,25.1,31.22,WNW,296,4.0,4.0,67,0.00,,,0.00,0.00,VWS V14.00,2013-02-14 10:15:00,
2013-02-14 03:20:00,35.1,24.2,31.23,NNW,344,0.0,2.0,64,0.00,,,0.00,0.00,VWS V14.00,2013-02-14 10:20:00,
2013-02-14 03:25:00,35.5,25.3,31.23,North,355,1.0,6.0,66,0.00,,,0.00,0.00,VWS V14.00,2013-02-14 10:25:00,
2013-02-14 03:30:00,35.7,25.1,31.24,North,355,2.0,6.0,65,0.00,,,0.00,0.00,VWS V14.00,2013-02-14 10:30:00,
2013-02-14 03:35:00,35.8,24.8,31.24,NNE,19,0.0,2.0,64,0.00,,,0.00,0.00,VWS V14.00,2013-02-14 10:35:00,
2013-02-14 03:40:00,35.9,25.3,31.24,NNE,19,0.0,2.0,65,0.00,,,0.00,0.00,VWS V14.00,2013-02-14 10:40:00,
2013-02-14 03:45:00,35.8,25.2,31.23,NNE,20,0.0,2.0,65,0.00,,,0.00,0.00,VWS V14.00,2013-02-14 10:45:00,
2013-02-14 03:50:00,35.7,25.1,31.23,NNE,20,0.0,0.0,65,0.00,,,0.00,0.00,VWS V14.00,2013-02-14 10:50:00,
2013-02-14 03:55:00,35.7,25.5,31.23,NNE,20,0.0,0.0,66,0.00,,,0.00,0.00,VWS V14.00,2013-02-14 10:55:00,
2013-02-14 04:00:00,35.5,25.6,31.23,NNE,19,0.0,3.0,67,0.00,,,0.00,0.00,VWS V14.00,2013-02-14 11:00:00,
2013-02-14 04:05:00,35.3,26.2,31.23,SE,146,2.0,3.0,69,0.00,,,0.00,0.00,VWS V14.00,2013-02-14 11:05:00,
2013-02-14 04:10:00,35.0,26.2,31.23,SSE,151,2.0,6.0,70,0.00,,,0.00,0.00,VWS V14.00,2013-02-14 11:10:00,
2013-02-14 04:15:00,34.7,25.9,31.23,SSE,165,2.0,6.0,70,0.00,,,0.00,0.00,VWS V14.00,2013-02-14 11:15:00,
2013-02-14 04:20:00,34.4,25.6,31.23,SE,136,5.0,5.0,70,0.00,,,0.00,0.00,VWS V14.00,2013-02-14 11:20:00,
2013-02-14 04:25:00,34.4,25.6,31.24,SE,133,0.0,5.0,70,0.00,,,0.00,0.00,VWS V14.00,2013-02-14 11:25:00,
2013-02-14 04:30:00,34.4,25.6,31.24,SE,133,1.0,5.0,70,0.00,,,0.00,0.00,VWS V14.00,2013-02-14 11:30:00,
2013-02-14 04:35:00,34.4,26.0,31.24,SE,133,0.0,0.0,71,0.00,,,0.00,0.00,VWS V14.00,2013-02-14 11:35:00,
2013-02-14 04:40:00,34.4,25.6,31.24,SE,133,0.0,0.0,70,0.00,,,0.00,0.00,VWS V14.00,2013-02-14 11:40:00,
2013-02-14 04:45:00,34.4,25.6,31.24,SE,133,0.0,0.0,70,0.00,,,0.00,0.00,VWS V14.00,2013-02-14 11:45:00,
2013-02-14 04:50:00,34.4,25.6,31.25,SE,133,1.0,2.0,70,0.00,,,0.00,0.00,VWS V14.00,2013-02-14 11:50:00,
2013-02-14 04:55:00,34.4,26.0,31.25,South,190,3.0,4.0,71,0.00,,,0.00,0.00,VWS V14.00,2013-02-14 11:55:00,
2013-02-14 05:00:00,34.2,25.8,31.25,SSE,153,3.0,6.0,71,0.00,,,0.00,0.00,VWS V14.00,2013-02-14 12:00:00,
2013-02-14 05:05:00,34.3,25.9,31.26,SSE,153,4.0,4.0,71,0.00,,,0.00,0.00,VWS V14.00,2013-02-14 12:05:00,
2013-02-14 05:10:00,34.3,25.5,31.26,SSE,153,0.0,4.0,70,0.00,,,0.00,0.00,VWS V14.00,2013-02-14 12:10:00,
2013-02-14 05:15:00,34.3,25.5,31.26,SSE,153,0.0,4.0,70,0.00,,,0.00,0.00,VWS V14.00,2013-02-14 12:15:00,
2013-02-14 05:20:00,34.3,25.5,31.26,SSE,153,0.0,0.0,70,0.00,,,0.00,0.00,VWS V14.00,2013-02-14 12:20:00,
2013-02-14 05:25:00,34.3,25.9,31.26,SSE,153,0.0,0.0,71,0.00,,,0.00,0.00,VWS V14.00,2013-02-14 12:25:00,
2013-02-14 05:30:00,34.2,25.8,31.26,SSE,153,0.0,2.0,71,0.00,,,0.00,0.00,VWS V14.00,2013-02-14 12:30:00,
2013-02-14 05:35:00,34.1,25.4,31.27,SSE,153,3.0,3.0,70,0.00,,,0.00,0.00,VWS V14.00,2013-02-14 12:35:00,
2013-02-14 05:40:00,34.2,25.5,31.27,SSE,153,3.0,4.0,70,0.00,,,0.00,0.00,VWS V14.00,2013-02-14 12:40:00,
2013-02-14 05:45:00,34.3,25.2,31.27,SSE,153,0.0,4.0,69,0.00,,,0.00,0.00,VWS V14.00,2013-02-14 12:45:00,
2013-02-14 05:50:00,34.4,25.0,31.27,SSE,153,0.0,0.0,68,0.00,,,0.00,0.00,VWS V14.00,2013-02-14 12:50:00,
2013-02-14 05:55:00,34.4,25.3,31.27,SSE,153,3.0,3.0,69,0.00,,,0.00,0.00,VWS V14.00,2013-02-14 12:55:00,
2013-02-14 06:00:00,34.4,25.6,31.27,SSE,153,1.0,4.0,70,0.00,,,0.00,0.00,VWS V14.00,2013-02-14 13:00:00,
2013-02-14 06:05:00,34.3,24.5,31.27,SSE,153,3.0,5.0,67,0.00,,,0.00,0.00,VWS V14.00,2013-02-14 13:05:00,
2013-02-14 06:10:00,34.4,24.6,31.27,SSE,153,0.0,5.0,67,0.00,,,0.00,0.00,VWS V14.00,2013-02-14 13:10:00,
2013-02-14 06:15:00,34.4,24.6,31.27,SSE,153,0.0,5.0,67,0.00,,,0.00,0.00,VWS V14.00,2013-02-14 13:15:00,
2013-02-14 06:20:00,34.4,24.2,31.27,SSE,161,5.0,5.0,66,0.00,,,0.00,0.00,VWS V14.00,2013-02-14 13:20:00,
2013-02-14 06:25:00,34.4,24.6,31.27,SE,144,3.0,6.0,67,0.00,,,0.00,0.00,VWS V14.00,2013-02-14 13:25:00,
2013-02-14 06:30:00,34.4,24.6,31.27,SE,144,2.0,6.0,67,0.00,,,0.00,0.00,VWS V14.00,2013-02-14 13:30:00,
2013-02-14 06:35:00,34.4,25.0,31.27,SE,145,9.0,11.0,68,0.00,,,0.00,0.00,VWS V14.00,2013-02-14 13:35:00,
2013-02-14 06:40:00,34.4,24.2,31.28,South,172,3.0,11.0,66,0.00,,,0.00,0.00,VWS V14.00,2013-02-14 13:40:00,
2013-02-14 06:45:00,34.4,24.2,31.27,SSE,149,3.0,11.0,66,0.00,,,0.00,0.00,VWS V14.00,2013-02-14 13:45:00,
2013-02-14 06:50:00,34.4,23.9,31.28,SSE,149,0.0,0.0,65,0.00,,,0.00,0.00,VWS V14.00,2013-02-14 13:50:00,
2013-02-14 06:55:00,34.4,23.9,31.28,SSE,149,0.0,4.0,65,0.00,,,0.00,0.00,VWS V14.00,2013-02-14 13:55:00,
2013-02-14 07:00:00,34.4,23.9,31.28,SSE,149,1.0,4.0,65,0.00,,,0.00,0.00,VWS V14.00,2013-02-14 14:00:00,
2013-02-14 07:05:00,34.4,23.9,31.29,SSE,149,2.0,3.0,65,0.00,,,0.00,0.00,VWS V14.00,2013-02-14 14:05:00,
2013-02-14 07:10:00,34.4,23.9,31.29,SSE,149,0.0,4.0,65,0.00,,,0.00,0.00,VWS V14.00,2013-02-14 14:10:00,
2013-02-14 07:15:00,34.4,23.9,31.29,SSE,148,0.0,4.0,65,0.00,,,0.00,0.00,VWS V14.00,2013-02-14 14:15:00,
2013-02-14 07:20:00,34.4,23.9,31.29,SSE,149,0.0,0.0,65,0.00,,,0.00,0.00,VWS V14.00,2013-02-14 14:20:00,
2013-02-14 07:25:00,34.3,23.8,31.29,SSE,149,0.0,0.0,65,0.00,,,0.00,0.00,VWS V14.00,2013-02-14 14:25:00,
2013-02-14 07:30:00,34.2,24.0,31.30,SSE,149,1.0,3.0,66,0.00,,,0.00,0.00,VWS V14.00,2013-02-14 14:30:00,
2013-02-14 07:35:00,34.2,24.0,31.30,SSE,149,0.0,0.0,66,0.00,,,0.00,0.00,VWS V14.00,2013-02-14 14:35:00,
2013-02-14 07:40:00,34.2,23.7,31.30,SSE,149,2.0,3.0,65,0.00,,,0.00,0.00,VWS V14.00,2013-02-14 14:40:00,
2013-02-14 07:45:00,34.2,24.0,31.30,SSE,149,0.0,3.0,66,0.00,,,0.00,0.00,VWS V14.00,2013-02-14 14:45:00,
2013-02-14 07:50:00,34.2,23.3,31.30,SSE,149,0.0,1.0,64,0.00,,,0.00,5.00,VWS V14.00,2013-02-14 14:50:00,
2013-02-14 07:55:00,34.2,23.7,31.31,SSE,149,0.0,1.0,65,0.00,,,0.00,0.00,VWS V14.00,2013-02-14 14:55:00,
2013-02-14 08:00:00,34.2,24.0,31.31,SSE,149,0.0,1.0,66,0.00,,,0.00,5.00,VWS V14.00,2013-02-14 15:00:00,
2013-02-14 08:05:00,34.2,24.4,31.30,SSE,149,0.0,0.0,67,0.00,,,0.00,7.00,VWS V14.00,2013-02-14 15:05:00,
2013-02-14 08:10:00,34.2,24.4,31.30,SSE,148,0.0,0.0,67,0.00,,,0.00,12.00,VWS V14.00,2013-02-14 15:10:00,
2013-02-14 08:15:00,34.2,24.0,31.30,SSE,148,0.0,1.0,66,0.00,,,0.00,18.00,VWS V14.00,2013-02-14 15:15:00,
2013-02-14 08:20:00,34.2,24.8,31.30,SSE,149,0.0,0.0,68,0.00,,,0.00,21.00,VWS V14.00,2013-02-14 15:20:00,
2013-02-14 08:25:00,34.2,24.4,31.31,SSE,149,0.0,1.0,67,0.00,,,0.00,28.00,VWS V14.00,2013-02-14 15:25:00,
2013-02-14 08:30:00,34.2,23.7,31.31,SSE,149,0.0,1.0,65,0.00,,,0.00,39.00,VWS V14.00,2013-02-14 15:30:00,
2013-02-14 08:35:00,34.4,23.5,31.31,SSE,149,0.0,2.0,64,0.00,,,0.00,39.00,VWS V14.00,2013-02-14 15:35:00,
2013-02-14 08:40:00,34.4,23.9,31.31,SSE,148,0.0,2.0,65,0.00,,,0.00,42.00,VWS V14.00,2013-02-14 15:40:00,
2013-02-14 08:45:00,34.4,24.2,31.31,SSE,149,0.0,2.0,66,0.00,,,0.00,47.00,VWS V14.00,2013-02-14 15:45:00,
2013-02-14 08:50:00,34.5,24.3,31.31,SSE,149,0.0,0.0,66,0.00,,,0.00,54.00,VWS V14.00,2013-02-14 15:50:00,
2013-02-14 08:55:00,34.6,24.4,31.31,SSE,149,0.0,1.0,66,0.00,,,0.00,54.00,VWS V14.00,2013-02-14 15:55:00,
2013-02-14 09:00:00,34.7,24.5,31.31,SSE,148,0.0,1.0,66,0.00,,,0.00,62.00,VWS V14.00,2013-02-14 16:00:00,
2013-02-14 09:05:00,34.8,24.6,31.31,SSE,149,0.0,0.0,66,0.00,,,0.00,70.00,VWS V14.00,2013-02-14 16:05:00,
2013-02-14 09:10:00,34.9,25.1,31.31,SSE,149,0.0,0.0,67,0.00,,,0.00,74.00,VWS V14.00,2013-02-14 16:10:00,
2013-02-14 09:15:00,35.0,25.2,31.31,SSE,149,0.0,3.0,67,0.00,,,0.00,77.00,VWS V14.00,2013-02-14 16:15:00,
2013-02-14 09:20:00,35.1,25.3,31.31,SSE,148,0.0,0.0,67,0.00,,,0.00,76.00,VWS V14.00,2013-02-14 16:20:00,
2013-02-14 09:25:00,35.2,25.4,31.31,SSE,149,0.0,0.0,67,0.00,,,0.00,74.00,VWS V14.00,2013-02-14 16:25:00,
2013-02-14 09:30:00,35.3,25.5,31.31,SSE,149,3.0,3.0,67,0.00,,,0.00,88.00,VWS V14.00,2013-02-14 16:30:00,
2013-02-14 09:35:00,35.5,24.2,31.32,SSE,149,0.0,2.0,63,0.00,,,0.00,95.00,VWS V14.00,2013-02-14 16:35:00,
2013-02-14 09:40:00,35.6,24.3,31.32,SSE,149,0.0,2.0,63,0.00,,,0.00,95.00,VWS V14.00,2013-02-14 16:40:00,
2013-02-14 09:45:00,35.9,24.2,31.32,SSE,149,0.0,2.0,62,0.00,,,0.00,95.00,VWS V14.00,2013-02-14 16:45:00,
2013-02-14 09:50:00,36.2,24.5,31.32,SSE,149,0.0,2.0,62,0.00,,,0.00,100.00,VWS V14.00,2013-02-14 16:50:00,
2013-02-14 09:55:00,36.4,25.0,31.32,SSE,148,0.0,2.0,63,0.00,,,0.00,107.00,VWS V14.00,2013-02-14 16:55:00,
2013-02-14 10:00:00,36.5,24.7,31.31,SSE,148,0.0,2.0,62,0.00,,,0.00,127.00,VWS V14.00,2013-02-14 17:00:00,
2013-02-14 10:05:00,36.6,25.2,31.31,SSE,149,2.0,2.0,63,0.00,,,0.00,146.00,VWS V14.00,2013-02-14 17:05:00,
2013-02-14 10:10:00,36.9,24.3,31.31,SSE,149,0.0,2.0,60,0.00,,,0.00,148.00,VWS V14.00,2013-02-14 17:10:00,
2013-02-14 10:16:00,37.1,23.7,31.32,SSE,149,0.0,2.0,58,0.00,,,0.00,162.00,VWS V14.00,2013-02-14 17:16:00,
2013-02-14 10:21:00,37.4,23.6,31.32,SSE,149,0.0,1.0,57,0.00,,,0.00,188.00,VWS V14.00,2013-02-14 17:21:00,
2013-02-14 10:26:00,37.6,23.8,31.32,SSE,149,0.0,1.0,57,0.00,,,0.00,193.00,VWS V14.00,2013-02-14 17:26:00,
2013-02-14 10:31:00,37.9,23.2,31.32,SSE,149,2.0,3.0,55,0.00,,,0.00,172.00,VWS V14.00,2013-02-14 17:31:00,
2013-02-14 10:36:00,38.2,22.6,31.32,SSE,149,0.0,1.0,53,0.00,,,0.00,165.00,VWS V14.00,2013-02-14 17:36:00,
2013-02-14 10:41:00,38.4,21.9,31.32,SSE,149,0.0,1.0,51,0.00,,,0.00,158.00,VWS V14.00,2013-02-14 17:41:00,
2013-02-14 10:46:00,38.5,21.5,31.31,SSE,149,0.0,1.0,50,0.00,,,0.00,169.00,VWS V14.00,2013-02-14 17:46:00,
2013-02-14 10:51:00,38.7,22.6,31.31,SSE,149,0.0,0.0,52,0.00,,,0.00,174.00,VWS V14.00,2013-02-14 17:51:00,
2013-02-14 10:56:00,38.9,22.8,31.31,SSE,149,0.0,0.0,52,0.00,,,0.00,181.00,VWS V14.00,2013-02-14 17:56:00,
2013-02-14 11:01:00,39.1,22.5,31.31,SSE,149,0.0,0.0,51,0.00,,,0.00,190.00,VWS V14.00,2013-02-14 18:01:00,
2013-02-14 11:06:00,39.3,22.2,31.31,SSE,149,0.0,0.0,50,0.00,,,0.00,188.00,VWS V14.00,2013-02-14 18:06:00,
2013-02-14 11:11:00,39.4,21.8,31.31,SSE,149,0.0,0.0,49,0.00,,,0.00,190.00,VWS V14.00,2013-02-14 18:11:00,
2013-02-14 11:16:00,39.7,22.6,31.31,SSE,149,0.0,0.0,50,0.00,,,0.00,197.00,VWS V14.00,2013-02-14 18:16:00,
2013-02-14 11:21:00,39.8,22.2,31.31,SSE,149,2.0,3.0,49,0.00,,,0.00,213.00,VWS V14.00,2013-02-14 18:21:00,
2013-02-14 11:26:00,39.9,22.3,31.31,SSE,149,0.0,3.0,49,0.00,,,0.00,232.00,VWS V14.00,2013-02-14 18:26:00,
2013-02-14 11:31:00,40.0,22.4,31.31,SSE,149,0.0,3.0,49,0.00,,,0.00,221.00,VWS V14.00,2013-02-14 18:31:00,
2013-02-14 11:36:00,40.1,23.4,31.31,SSE,149,0.0,3.0,51,0.00,,,0.00,236.00,VWS V14.00,2013-02-14 18:36:00,
2013-02-14 11:41:00,40.0,25.1,31.31,NW,315,8.0,11.0,55,0.00,,,0.00,216.00,VWS V14.00,2013-02-14 18:41:00,
2013-02-14 11:46:00,39.7,24.0,31.31,WNW,291,0.0,11.0,53,0.00,,,0.00,211.00,VWS V14.00,2013-02-14 18:46:00,
2013-02-14 11:51:00,39.6,24.3,31.31,NNW,346,0.0,4.0,54,0.00,,,0.00,211.00,VWS V14.00,2013-02-14 18:51:00,
2013-02-14 11:56:00,39.5,23.8,31.31,NNW,327,2.0,6.0,53,0.00,,,0.00,214.00,VWS V14.00,2013-02-14 18:56:00,
2013-02-14 12:01:00,39.6,24.8,31.31,WNW,283,4.0,10.0,55,0.00,,,0.00,218.00,VWS V14.00,2013-02-14 19:01:00,
2013-02-14 12:06:00,39.7,23.5,31.31,NW,306,2.0,4.0,52,0.00,,,0.00,225.00,VWS V14.00,2013-02-14 19:06:00,
2013-02-14 12:11:00,39.7,24.0,31.31,WNW,291,4.0,4.0,53,0.00,,,0.00,250.00,VWS V14.00,2013-02-14 19:11:00,
2013-02-14 12:16:00,39.8,24.5,31.31,WNW,288,5.0,6.0,54,0.00,,,0.00,283.00,VWS V14.00,2013-02-14 19:16:00,
2013-02-14 12:21:00,39.9,23.3,31.31,NW,314,4.0,7.0,51,0.00,,,0.00,269.00,VWS V14.00,2013-02-14 19:21:00,
2013-02-14 12:26:00,39.9,23.3,31.31,NW,319,4.0,7.0,51,0.00,,,0.00,258.00,VWS V14.00,2013-02-14 19:26:00,
2013-02-14 12:31:00,39.9,24.2,31.31,NW,318,2.0,7.0,53,0.00,,,0.00,290.00,VWS V14.00,2013-02-14 19:31:00,
2013-02-14 12:36:00,40.1,23.4,31.31,West,267,3.0,6.0,51,0.00,,,0.00,295.00,VWS V14.00,2013-02-14 19:36:00,
2013-02-14 12:41:00,40.2,23.5,31.31,WNW,292,5.0,6.0,51,0.00,,,0.00,279.00,VWS V14.00,2013-02-14 19:41:00,
2013-02-14 12:46:00,40.4,23.7,31.31,WNW,286,6.0,9.0,51,0.00,,,0.00,276.00,VWS V14.00,2013-02-14 19:46:00,
2013-02-14 12:51:00,40.5,22.9,31.31,WNW,291,3.0,9.0,49,0.00,,,0.00,304.00,VWS V14.00,2013-02-14 19:51:00,
2013-02-14 12:56:00,40.6,23.9,31.31,WNW,292,6.0,11.0,51,0.00,,,0.00,239.00,VWS V14.00,2013-02-14 19:56:00,
2013-02-14 13:01:00,40.6,23.0,31.31,West,281,4.0,11.0,49,0.00,,,0.00,239.00,VWS V14.00,2013-02-14 20:01:00,
2013-02-14 13:06:00,40.7,24.5,31.32,NW,304,10.0,11.0,52,0.00,,,0.00,257.00,VWS V14.00,2013-02-14 20:06:00,
2013-02-14 13:11:00,40.6,24.8,31.32,NW,315,5.0,11.0,53,0.00,,,0.00,360.00,VWS V14.00,2013-02-14 20:11:00,
2013-02-14 13:16:00,40.7,23.5,31.32,West,276,6.0,12.0,50,0.00,,,0.00,255.00,VWS V14.00,2013-02-14 20:16:00,
2013-02-14 13:21:00,41.0,24.3,31.32,West,267,6.0,11.0,51,0.00,,,0.00,452.00,VWS V14.00,2013-02-14 20:21:00,
2013-02-14 13:26:00,41.4,24.6,31.32,West,280,3.0,11.0,51,0.00,,,0.00,497.00,VWS V14.00,2013-02-14 20:26:00,
2013-02-14 13:31:00,41.8,25.0,31.31,West,275,6.0,14.0,51,0.00,,,0.00,425.00,VWS V14.00,2013-02-14 20:31:00,
2013-02-14 13:36:00,41.9,24.6,31.31,WNW,299,6.0,13.0,50,0.00,,,0.00,448.00,VWS V14.00,2013-02-14 20:36:00,
2013-02-14 13:41:00,42.0,23.8,31.31,West,278,9.0,14.0,48,0.00,,,0.00,519.00,VWS V14.00,2013-02-14 20:41:00,
2013-02-14 13:46:00,42.3,24.5,31.31,West,271,11.0,14.0,49,0.00,,,0.00,526.00,VWS V14.00,2013-02-14 20:46:00,
2013-02-14 13:51:00,42.4,24.1,31.31,West,264,10.0,11.0,48,0.00,,,0.00,438.00,VWS V14.00,2013-02-14 20:51:00,
2013-02-14 13:56:00,42.2,24.4,31.31,WNW,294,7.0,11.0,49,0.00,,,0.00,401.00,VWS V14.00,2013-02-14 20:56:00,
2013-02-14 14:01:00,42.2,24.4,31.31,WNW,282,6.0,11.0,49,0.00,,,0.00,513.00,VWS V14.00,2013-02-14 21:01:00,
2013-02-14 14:06:00,42.4,25.1,31.31,WSW,251,6.0,8.0,50,0.00,,,0.00,517.00,VWS V14.00,2013-02-14 21:06:00,
2013-02-14 14:11:00,42.5,24.7,31.31,WSW,248,5.0,10.0,49,0.00,,,0.00,466.00,VWS V14.00,2013-02-14 21:11:00,
2013-02-14 14:16:00,42.6,24.8,31.31,West,279,3.0,10.0,49,0.00,,,0.00,508.00,VWS V14.00,2013-02-14 21:16:00,
2013-02-14 14:21:00,42.7,26.3,31.30,WNW,284,9.0,10.0,52,0.00,,,0.00,478.00,VWS V14.00,2013-02-14 21:21:00,
2013-02-14 14:26:00,42.6,23.3,31.30,West,270,5.0,11.0,46,0.00,,,0.00,566.00,VWS V14.00,2013-02-14 21:26:00,
2013-02-14 14:31:00,42.5,24.2,31.30,West,267,6.0,11.0,48,0.00,,,0.00,246.00,VWS V14.00,2013-02-14 21:31:00,
2013-02-14 14:36:00,42.4,24.1,31.31,WNW,293,3.0,7.0,48,0.00,,,0.00,575.00,VWS V14.00,2013-02-14 21:36:00,
2013-02-14 14:41:00,42.4,23.1,31.31,NNW,339,2.0,7.0,46,0.00,,,0.00,271.00,VWS V14.00,2013-02-14 21:41:00,
2013-02-14 14:46:00,42.2,23.9,31.31,WNW,285,10.0,15.0,48,0.00,,,0.00,169.00,VWS V14.00,2013-02-14 21:46:00,
2013-02-14 14:51:00,41.9,23.7,31.31,SSE,163,4.0,6.0,48,0.00,,,0.00,160.00,VWS V14.00,2013-02-14 21:51:00,
2013-02-14 14:56:00,41.7,23.0,31.31,SSW,200,0.0,6.0,47,0.00,,,0.00,188.00,VWS V14.00,2013-02-14 21:56:00,
2013-02-14 15:01:00,41.6,22.9,31.31,SSW,199,0.0,6.0,47,0.00,,,0.00,176.00,VWS V14.00,2013-02-14 22:01:00,
2013-02-14 15:06:00,41.7,22.5,31.31,South,188,0.0,5.0,46,0.00,,,0.00,248.00,VWS V14.00,2013-02-14 22:06:00,
2013-02-14 15:11:00,41.8,22.5,31.31,South,188,2.0,6.0,46,0.00,,,0.00,176.00,VWS V14.00,2013-02-14 22:11:00,
2013-02-14 15:16:00,41.7,22.5,31.31,NW,314,3.0,7.0,46,0.00,,,0.00,206.00,VWS V14.00,2013-02-14 22:16:00,
2013-02-14 15:21:00,41.7,23.0,31.31,NW,322,3.0,3.0,47,0.00,,,0.00,146.00,VWS V14.00,2013-02-14 22:21:00,
2013-02-14 15:26:00,41.6,22.9,31.31,NW,307,7.0,11.0,47,0.00,,,0.00,111.00,VWS V14.00,2013-02-14 22:26:00,
2013-02-14 15:31:00,41.3,22.1,31.31,WNW,299,6.0,11.0,46,0.00,,,0.00,109.00,VWS V14.00,2013-02-14 22:31:00,
2013-02-14 15:36:00,41.0,22.8,31.31,WNW,286,6.0,9.0,48,0.00,,,0.00,113.00,VWS V14.00,2013-02-14 22:36:00,
2013-02-14 15:41:00,40.8,23.1,31.32,WNW,290,4.0,9.0,49,0.00,,,0.00,130.00,VWS V14.00,2013-02-14 22:41:00,
2013-02-14 15:46:00,40.7,23.0,31.32,West,279,5.0,9.0,49,0.00,,,0.00,123.00,VWS V14.00,2013-02-14 22:46:00,
2013-02-14 15:51:00,40.7,23.0,31.32,West,278,8.0,9.0,49,0.00,,,0.00,148.00,VWS V14.00,2013-02-14 22:51:00,
2013-02-14 15:56:00,40.7,22.5,31.32,WNW,284,3.0,9.0,48,0.00,,,0.00,162.00,VWS V14.00,2013-02-14 22:56:00,
2013-02-14 16:01:00,40.8,23.1,31.32,West,265,4.0,9.0,49,0.00,,,0.00,132.00,VWS V14.00,2013-02-14 23:01:00,
2013-02-14 16:06:00,40.7,23.5,31.33,West,263,7.0,8.0,50,0.00,,,0.00,109.00,VWS V14.00,2013-02-14 23:06:00,
2013-02-14 16:11:00,40.7,23.5,31.32,West,263,1.0,8.0,50,0.00,,,0.00,134.00,VWS V14.00,2013-02-14 23:11:00,
2013-02-14 16:16:00,40.7,22.5,31.33,West,263,4.0,8.0,48,0.00,,,0.00,120.00,VWS V14.00,2013-02-14 23:16:00,
2013-02-14 16:20:00,40.7,23.0,31.33,West,260,1.0,6.0,49,0.00,,,0.00,91.00,VWS V14.00,2013-02-14 23:20:00,
2013-02-14 16:26:00,40.6,22.5,31.32,West,260,0.0,6.0,48,0.00,,,0.00,93.00,VWS V14.00,2013-02-14 23:26:00,
2013-02-14 16:30:00,40.6,23.4,31.33,West,260,2.0,6.0,50,0.00,,,0.00,109.00,VWS V14.00,2013-02-14 23:30:00,
2013-02-14 16:35:00,40.7,23.0,31.32,West,260,0.0,2.0,49,0.00,,,0.00,121.00,VWS V14.00,2013-02-14 23:35:00,
2013-02-14 16:40:00,40.7,23.0,31.32,West,260,0.0,2.0,49,0.00,,,0.00,111.00,VWS V14.00,2013-02-14 23:40:00,
2013-02-14 16:45:00,40.8,23.6,31.33,West,260,2.0,3.0,50,0.00,,,0.00,105.00,VWS V14.00,2013-02-14 23:45:00,
2013-02-14 16:50:00,40.8,23.1,31.33,West,260,0.0,1.0,49,0.00,,,0.00,84.00,VWS V14.00,2013-02-14 23:50:00,
2013-02-14 16:55:00,40.8,23.6,31.33,West,260,0.0,4.0,50,0.00,,,0.00,67.00,VWS V14.00,2013-02-14 23:55:00,
2013-02-14 17:00:00,40.7,23.0,31.33,West,260,0.0,4.0,49,0.00,,,0.00,51.00,VWS V14.00,2013-02-15 00:00:00,
2013-02-14 17:05:00,40.6,23.0,31.33,West,260,0.0,1.0,49,0.00,,,0.00,49.00,VWS V14.00,2013-02-15 00:05:00,
2013-02-14 17:10:00,40.5,23.3,31.33,West,260,0.0,2.0,50,0.00,,,0.00,49.00,VWS V14.00,2013-02-15 00:10:00,
2013-02-14 17:15:00,40.4,23.7,31.33,West,260,0.0,2.0,51,0.00,,,0.00,46.00,VWS V14.00,2013-02-15 00:15:00,
2013-02-14 17:20:00,40.4,23.7,31.33,West,260,0.0,3.0,51,0.00,,,0.00,37.00,VWS V14.00,2013-02-15 00:20:00,
2013-02-14 17:25:00,40.3,24.1,31.33,West,260,0.0,3.0,52,0.00,,,0.00,32.00,VWS V14.00,2013-02-15 00:25:00,
2013-02-14 17:30:00,40.2,24.5,31.33,West,260,0.0,3.0,53,0.00,,,0.00,26.00,VWS V14.00,2013-02-15 00:30:00,
2013-02-14 17:35:00,40.1,24.4,31.33,West,260,0.0,0.0,53,0.00,,,0.00,23.00,VWS V14.00,2013-02-15 00:35:00,
2013-02-14 17:40:00,40.0,24.7,31.33,West,260,0.0,1.0,54,0.00,,,0.00,16.00,VWS V14.00,2013-02-15 00:40:00,
2013-02-14 17:45:00,39.8,24.5,31.33,West,260,0.0,5.0,54,0.00,,,0.00,9.00,VWS V14.00,2013-02-15 00:45:00,
2013-02-14 17:50:00,39.7,25.3,31.33,West,260,0.0,0.0,56,0.00,,,0.00,5.00,VWS V14.00,2013-02-15 00:50:00,
2013-02-14 17:55:00,39.5,25.1,31.33,West,260,0.0,0.0,56,0.00,,,0.00,0.00,VWS V14.00,2013-02-15 00:55:00,
2013-02-14 18:00:00,39.3,24.5,31.34,West,260,0.0,1.0,55,0.00,,,0.00,0.00,VWS V14.00,2013-02-15 01:00:00,
2013-02-14 18:05:00,39.1,24.7,31.34,West,260,0.0,2.0,56,0.00,,,0.00,0.00,VWS V14.00,2013-02-15 01:05:00,
2013-02-14 18:10:00,38.9,25.0,31.34,West,260,0.0,2.0,57,0.00,,,0.00,0.00,VWS V14.00,2013-02-15 01:10:00,
2013-02-14 18:15:00,38.6,25.1,31.34,West,260,0.0,2.0,58,0.00,,,0.00,0.00,VWS V14.00,2013-02-15 01:15:00,
2013-02-14 18:20:00,38.4,24.9,31.34,West,260,0.0,0.0,58,0.00,,,0.00,0.00,VWS V14.00,2013-02-15 01:20:00,
2013-02-14 18:25:00,38.2,24.7,31.34,West,260,1.0,2.0,58,0.00,,,0.00,0.00,VWS V14.00,2013-02-15 01:25:00,
2013-02-14 18:30:00,38.0,25.0,31.34,West,260,2.0,5.0,59,0.00,,,0.00,0.00,VWS V14.00,2013-02-15 01:30:00,
2013-02-14 18:35:00,37.9,24.9,31.35,South,176,4.0,5.0,59,0.00,,,0.00,0.00,VWS V14.00,2013-02-15 01:35:00,
2013-02-14 18:40:00,37.8,25.6,31.35,South,186,3.0,5.0,61,0.00,,,0.00,0.00,VWS V14.00,2013-02-15 01:40:00,
2013-02-14 18:45:00,37.7,25.9,31.35,South,181,2.0,6.0,62,0.00,,,0.00,0.00,VWS V14.00,2013-02-15 01:45:00,
2013-02-14 18:50:00,37.6,25.0,31.35,South,181,0.0,2.0,60,0.00,,,0.00,0.00,VWS V14.00,2013-02-15 01:50:00,
2013-02-14 18:55:00,37.6,24.6,31.35,WSW,242,2.0,4.0,59,0.00,,,0.00,0.00,VWS V14.00,2013-02-15 01:55:00,
2013-02-14 19:00:00,37.6,25.4,31.35,SSW,202,0.0,4.0,61,0.00,,,0.00,0.00,VWS V14.00,2013-02-15 02:00:00,
2013-02-14 19:05:00,37.5,24.9,31.35,SSW,202,0.0,1.0,60,0.00,,,0.00,0.00,VWS V14.00,2013-02-15 02:05:00,
2013-02-14 19:10:00,37.5,24.5,31.36,WSW,257,3.0,5.0,59,0.00,,,0.00,0.00,VWS V14.00,2013-02-15 02:10:00,
2013-02-14 19:15:00,37.6,24.6,31.36,West,267,3.0,6.0,59,0.00,,,0.00,0.00,VWS V14.00,2013-02-15 02:15:00,
2013-02-14 19:20:00,37.7,24.3,31.36,West,275,4.0,11.0,58,0.00,,,0.00,0.00,VWS V14.00,2013-02-15 02:20:00,
2013-02-14 19:25:00,37.8,24.4,31.36,WNW,284,5.0,11.0,58,0.00,,,0.00,0.00,VWS V14.00,2013-02-15 02:25:00,
2013-02-14 19:30:00,37.8,24.4,31.36,WNW,284,0.0,11.0,58,0.00,,,0.00,0.00,VWS V14.00,2013-02-15 02:30:00,
2013-02-14 19:35:00,37.8,24.4,31.36,WNW,284,0.0,0.0,58,0.00,,,0.00,0.00,VWS V14.00,2013-02-15 02:35:00,
2013-02-14 19:40:00,37.7,25.1,31.36,WNW,284,0.0,2.0,60,0.00,,,0.00,0.00,VWS V14.00,2013-02-15 02:40:00,
2013-02-14 19:45:00,37.5,24.9,31.36,WNW,284,0.0,2.0,60,0.00,,,0.00,0.00,VWS V14.00,2013-02-15 02:45:00,
2013-02-14 19:50:00,37.4,24.8,31.37,WNW,284,0.0,0.0,60,0.00,,,0.00,0.00,VWS V14.00,2013-02-15 02:50:00,
2013-02-14 19:55:00,37.3,24.7,31.37,WNW,284,0.0,1.0,60,0.00,,,0.00,0.00,VWS V14.00,2013-02-15 02:55:00,
2013-02-14 20:00:00,37.1,24.5,31.37,WNW,284,0.0,1.0,60,0.00,,,0.00,0.00,VWS V14.00,2013-02-15 03:00:00,
2013-02-14 20:05:00,37.0,24.4,31.36,WNW,284,0.0,0.0,60,0.00,,,0.00,0.00,VWS V14.00,2013-02-15 03:05:00,
2013-02-14 20:10:00,36.8,24.6,31.36,WNW,284,0.0,0.0,61,0.00,,,0.00,0.00,VWS V14.00,2013-02-15 03:10:00,
2013-02-14 20:15:00,36.6,24.8,31.35,WNW,284,1.0,1.0,62,0.00,,,0.00,0.00,VWS V14.00,2013-02-15 03:15:00,
2013-02-14 20:20:00,36.4,24.2,31.37,WNW,284,0.0,0.0,61,0.00,,,0.00,0.00,VWS V14.00,2013-02-15 03:20:00,
2013-02-14 20:25:00,36.2,25.2,31.37,WNW,284,0.0,0.0,64,0.00,,,0.00,0.00,VWS V14.00,2013-02-15 03:25:00,
2013-02-14 20:30:00,35.9,24.9,31.37,WNW,284,0.0,0.0,64,0.00,,,0.00,0.00,VWS V14.00,2013-02-15 03:30:00,
2013-02-14 20:35:00,35.6,25.0,31.37,WNW,284,2.0,2.0,65,0.00,,,0.00,0.00,VWS V14.00,2013-02-15 03:35:00,
2013-02-14 20:40:00,35.4,24.5,31.37,WNW,284,0.0,2.0,64,0.00,,,0.00,0.00,VWS V14.00,2013-02-15 03:40:00,
2013-02-14 20:45:00,35.5,24.2,31.37,WNW,284,0.0,2.0,63,0.00,,,0.00,0.00,VWS V14.00,2013-02-15 03:45:00,
2013-02-14 20:50:00,35.5,24.5,31.37,WNW,284,1.0,2.0,64,0.00,,,0.00,0.00,VWS V14.00,2013-02-15 03:50:00,
2013-02-14 20:55:00,35.5,24.5,31.37,WNW,284,0.0,2.0,64,0.00,,,0.00,0.00,VWS V14.00,2013-02-15 03:55:00,
2013-02-14 21:00:00,35.5,24.5,31.38,WNW,284,0.0,3.0,64,0.00,,,0.00,0.00,VWS V14.00,2013-02-15 04:00:00,
2013-02-14 21:05:00,35.6,24.6,31.37,WNW,284,0.0,0.0,64,0.00,,,0.00,0.00,VWS V14.00,2013-02-15 04:05:00,
2013-02-14 21:10:00,35.5,24.5,31.37,WNW,284,1.0,2.0,64,0.00,,,0.00,0.00,VWS V14.00,2013-02-15 04:10:00,
2013-02-14 21:15:00,35.5,24.9,31.37,WNW,284,0.0,2.0,65,0.00,,,0.00,0.00,VWS V14.00,2013-02-15 04:15:00,
2013-02-14 21:20:00,35.3,24.7,31.37,WNW,284,1.0,3.0,65,0.00,,,0.00,0.00,VWS V14.00,2013-02-15 04:20:00,
2013-02-14 21:25:00,35.4,25.2,31.37,West,273,5.0,7.0,66,0.00,,,0.00,0.00,VWS V14.00,2013-02-15 04:25:00,
2013-02-14 21:30:00,35.8,25.2,31.37,West,281,5.0,9.0,65,0.00,,,0.00,0.00,VWS V14.00,2013-02-15 04:30:00,
2013-02-14 21:35:00,36.2,25.2,31.37,WNW,282,4.0,7.0,64,0.00,,,0.00,0.00,VWS V14.00,2013-02-15 04:35:00,
2013-02-14 21:40:00,36.4,25.4,31.37,West,268,3.0,7.0,64,0.00,,,0.00,0.00,VWS V14.00,2013-02-15 04:40:00,
2013-02-14 21:45:00,36.4,25.4,31.37,West,268,2.0,7.0,64,0.00,,,0.00,0.00,VWS V14.00,2013-02-15 04:45:00,
2013-02-14 21:50:00,36.4,25.0,31.37,WSW,252,3.0,4.0,63,0.00,,,0.00,0.00,VWS V14.00,2013-02-15 04:50:00,
2013-02-14 21:55:00,36.3,25.3,31.37,WSW,252,2.0,4.0,64,0.00,,,0.00,0.00,VWS V14.00,2013-02-15 04:55:00,
2013-02-14 22:00:00,36.1,25.1,31.37,West,272,1.0,7.0,64,0.00,,,0.00,0.00,VWS V14.00,2013-02-15 05:00:00,
2013-02-14 22:05:00,36.0,24.6,31.36,West,261,4.0,5.0,63,0.00,,,0.00,0.00,VWS V14.00,2013-02-15 05:05:00,
2013-02-14 22:10:00,36.2,24.5,31.36,WSW,250,2.0,6.0,62,0.00,,,0.00,0.00,VWS V14.00,2013-02-15 05:10:00,
2013-02-14 22:15:00,36.4,25.0,31.37,WSW,250,0.0,6.0,63,0.00,,,0.00,0.00,VWS V14.00,2013-02-15 05:15:00,
2013-02-14 22:20:00,36.3,24.9,31.37,WSW,250,0.0,0.0,63,0.00,,,0.00,0.00,VWS V14.00,2013-02-15 05:20:00,
2013-02-14 22:25:00,35.9,24.9,31.37,WSW,251,1.0,2.0,64,0.00,,,0.00,0.00,VWS V14.00,2013-02-15 05:25:00,
2013-02-14 22:30:00,35.7,24.7,31.37,WSW,251,1.0,3.0,64,0.00,,,0.00,0.00,VWS V14.00,2013-02-15 05:30:00,
2013-02-14 22:35:00,35.5,24.5,31.37,WSW,251,0.0,0.0,64,0.00,,,0.00,0.00,VWS V14.00,2013-02-15 05:35:00,
2013-02-14 22:40:00,35.5,24.5,31.38,WSW,250,0.0,1.0,64,0.00,,,0.00,0.00,VWS V14.00,2013-02-15 05:40:00,
2013-02-14 22:45:00,35.5,24.5,31.38,WSW,251,0.0,1.0,64,0.00,,,0.00,0.00,VWS V14.00,2013-02-15 05:45:00,
2013-02-14 22:50:00,35.4,24.5,31.38,WSW,251,0.0,0.0,64,0.00,,,0.00,0.00,VWS V14.00,2013-02-15 05:50:00,
2013-02-14 22:55:00,35.3,24.7,31.39,WSW,251,1.0,3.0,65,0.00,,,0.00,0.00,VWS V14.00,2013-02-15 05:55:00,
2013-02-14 23:00:00,35.2,25.0,31.39,WSW,251,0.0,3.0,66,0.00,,,0.00,0.00,VWS V14.00,2013-02-15 06:00:00,
2013-02-14 23:05:00,35.1,24.9,31.39,WSW,251,1.0,3.0,66,0.00,,,0.00,0.00,VWS V14.00,2013-02-15 06:05:00,
2013-02-14 23:10:00,35.0,24.4,31.39,WSW,250,0.0,3.0,65,0.00,,,0.00,0.00,VWS V14.00,2013-02-15 06:10:00,
2013-02-14 23:15:00,35.1,24.5,31.39,WSW,250,1.0,3.0,65,0.00,,,0.00,0.00,VWS V14.00,2013-02-15 06:15:00,
2013-02-14 23:20:00,35.0,24.8,31.39,WSW,251,0.0,0.0,66,0.00,,,0.00,0.00,VWS V14.00,2013-02-15 06:20:00,
2013-02-14 23:25:00,35.0,24.8,31.40,WSW,250,0.0,0.0,66,0.00,,,0.00,0.00,VWS V14.00,2013-02-15 06:25:00,
2013-02-14 23:30:00,35.0,25.2,31.40,WSW,250,0.0,1.0,67,0.00,,,0.00,0.00,VWS V14.00,2013-02-15 06:30:00,
2013-02-14 23:35:00,34.8,25.0,31.40,WSW,251,0.0,3.0,67,0.00,,,0.00,0.00,VWS V14.00,2013-02-15 06:35:00,
2013-02-14 23:40:00,34.8,25.0,31.40,SE,146,0.0,5.0,67,0.00,,,0.00,0.00,VWS V14.00,2013-02-15 06:40:00,
2013-02-14 23:45:00,34.9,25.1,31.40,SE,129,2.0,5.0,67,0.00,,,0.00,0.00,VWS V14.00,2013-02-15 06:45:00,
2013-02-14 23:50:00,35.1,25.3,31.40,SE,130,1.0,2.0,67,0.00,,,0.00,0.00,VWS V14.00,2013-02-15 06:50:00,
2013-02-14 23:55:00,35.2,25.4,31.40,SE,130,3.0,3.0,67,0.00,,,0.00,0.00,VWS V14.00,2013-02-15 06:55:00,